This is the latest recevied weather packets stored in our database for station/object K1KOF. If no packets are shown the sender has not sent any weather packets the latest 1 day(s).
| Time | Temp. | Humidity | Pressure | Rain* | Wind** | Luminosity | Snow |
|---|---|---|---|---|---|---|---|
| 1836274680 | 20.56° C | 96% | 1027.5 hPa | 0 mm | 0.45 m/s, 105° | 0 W/m² | - |
| 1836274532 | 20.56° C | 97% | 1027.7 hPa | 0 mm | 0 m/s | 0 W/m² | - |
| 1836274378 | 20.56° C | 96% | 1027.7 hPa | 0 mm | 0.89 m/s, 99° | 0 W/m² | - |
| 1836274231 | 20.56° C | 97% | 1027.7 hPa | 0 mm | 0.45 m/s, 126° | 0 W/m² | - |
| 1836274076 | 20.56° C | 96% | 1027.9 hPa | 0 mm | 0.45 m/s, 60° | 0 W/m² | - |
| 1778054623 | 17.78° C | 81% | 1024.9 hPa | 0 mm | 0 m/s | 0 W/m² | - |
| 1778054321 | 17.78° C | 81% | 1025 hPa | 0 mm | 2.24 m/s, 179° | 0 W/m² | - |
| 1778054018 | 17.78° C | 81% | 1024.9 hPa | 0 mm | 0.45 m/s, 198° | 0 W/m² | - |
| 1778053716 | 17.78° C | 81% | 1025.1 hPa | 0 mm | 0.45 m/s, 246° | 0 W/m² | - |
| 1778053412 | 17.78° C | 80% | 1025 hPa | 0 mm | 0 m/s | 0 W/m² | - |
| 1778053110 | 17.78° C | 80% | 1024.9 hPa | 0 mm | 2.24 m/s, 147° | 0 W/m² | - |
| 1778052808 | 17.78° C | 80% | 1024.8 hPa | 0 mm | 0.45 m/s, 185° | 0 W/m² | - |
| 1778052504 | 18.33° C | 80% | 1024.7 hPa | 0 mm | 1.79 m/s, 184° | 0 W/m² | - |
| 1778052202 | 18.33° C | 79% | 1024.9 hPa | 0 mm | 3.13 m/s, 235° | 0 W/m² | - |
| 1778051900 | 18.33° C | 79% | 1025 hPa | 0 mm | 0 m/s | 0 W/m² | - |
| 1778051597 | 18.33° C | 79% | 1025 hPa | 0 mm | 2.24 m/s, 191° | 0 W/m² | - |
| 1778051294 | 18.33° C | 79% | 1024.7 hPa | 0 mm | 0.89 m/s, 180° | 0 W/m² | - |
| 1778050991 | 18.33° C | 80% | 1024.7 hPa | 0 mm | 0.89 m/s, 65° | 0 W/m² | - |
| 1778050688 | 18.33° C | 79% | 1025 hPa | 0 mm | 1.34 m/s, 222° | 0 W/m² | - |
| 1778050385 | 18.33° C | 79% | 1024.9 hPa | 0 mm | 1.34 m/s, 192° | 0 W/m² | - |
| 1778050076 | 18.33° C | 79% | 1025 hPa | 0 mm | 0.89 m/s, 270° | 0 W/m² | - |
| 1778049772 | 18.33° C | 78% | 1024.9 hPa | 0 mm | 0 m/s | 0 W/m² | - |
| 1778049469 | 18.33° C | 79% | 1024.7 hPa | 0 mm | 2.24 m/s, 161° | 0 W/m² | - |
| 1778049167 | 18.33° C | 79% | 1024.8 hPa | 0 mm | 1.34 m/s, 328° | 0 W/m² | - |
| 1778048865 | 18.33° C | 78% | 1024.7 hPa | 0 mm | 3.58 m/s, 183° | 0 W/m² | - |
* Rain latest hour (hover to see other rain measurements)
** Current wind speed in m/s (hover to see current wind gust speed)